TimeEDT,TemperatureF,Dew PointF,Humidity,Sea Level PressureIn,VisibilityMPH,Wind Direction,Wind SpeedMPH,Gust SpeedMPH,PrecipitationIn,Events,Conditions,WindDirDegrees,DateUTC
12:53 AM,19.0,10.0,68,29.98,10.0,West,9.2,-,N/A,,Clear,270,2013-03-21 04:53:00
2:53 AM,17.1,10.9,77,29.96,10.0,West,8.1,-,N/A,,Clear,270,2013-03-21 06:53:00
3:53 AM,17.1,10.9,77,29.96,10.0,West,8.1,-,N/A,,Clear,270,2013-03-21 07:53:00
4:53 AM,17.1,10.9,77,29.94,10.0,West,8.1,-,N/A,,Clear,260,2013-03-21 08:53:00
5:53 AM,17.1,12.0,81,29.94,10.0,West,9.2,-,N/A,,Scattered Clouds,260,2013-03-21 09:53:00
6:53 AM,19.0,12.9,77,29.94,10.0,West,9.2,-,N/A,,Overcast,260,2013-03-21 10:53:00
7:53 AM,19.0,12.9,77,29.93,5.0,West,11.5,-,0.00,Snow,Light Snow,260,2013-03-21 11:53:00
8:53 AM,21.0,14.0,74,29.93,10.0,West,13.8,-,N/A,,Partly Cloudy,260,2013-03-21 12:53:00
9:53 AM,23.0,15.1,72,29.93,9.0,West,12.7,23.0,0.00,Snow,Light Snow,260,2013-03-21 13:53:00
10:02 AM,23.0,15.8,74,29.90,8.0,West,12.7,-,0.00,,Overcast,270,2013-03-21 14:02:00
10:53 AM,26.1,16.0,66,29.93,10.0,West,13.8,-,0.00,,Overcast,280,2013-03-21 14:53:00
11:30 AM,26.6,17.6,69,29.91,2.5,WNW,13.8,-,0.00,Snow,Light Snow,290,2013-03-21 15:30:00
11:48 AM,26.6,17.6,69,29.91,5.0,West,13.8,-,0.00,Snow,Light Snow,270,2013-03-21 15:48:00
11:53 AM,28.0,18.0,66,29.94,5.0,WNW,16.1,-,0.00,Snow,Light Snow,290,2013-03-21 15:53:00
12:23 PM,30.2,17.6,60,29.91,9.0,WNW,16.1,-,0.00,,Overcast,300,2013-03-21 16:23:00
12:32 PM,28.4,17.6,64,29.92,8.0,WNW,16.1,-,0.00,Snow,Light Snow,290,2013-03-21 16:32:00
12:53 PM,30.9,19.0,61,29.94,8.0,West,12.7,-,0.00,Snow,Light Snow,280,2013-03-21 16:53:00
1:18 PM,32.0,17.6,55,29.90,10.0,West,15.0,-,0.00,,Overcast,270,2013-03-21 17:18:00
1:53 PM,30.9,19.0,61,29.93,9.0,WNW,18.4,-,0.00,Snow,Light Snow,290,2013-03-21 17:53:00
2:53 PM,32.0,17.1,54,29.92,10.0,WNW,18.4,-,0.00,,Overcast,290,2013-03-21 18:53:00
3:53 PM,30.9,18.0,59,29.93,10.0,West,18.4,-,N/A,,Overcast,280,2013-03-21 19:53:00
4:53 PM,32.0,17.1,54,29.93,10.0,WNW,17.3,-,N/A,,Overcast,290,2013-03-21 20:53:00
5:53 PM,32.0,19.0,59,29.93,10.0,West,16.1,-,N/A,,Overcast,270,2013-03-21 21:53:00
6:53 PM,30.9,19.9,64,29.94,10.0,West,18.4,24.2,N/A,,Overcast,270,2013-03-21 22:53:00
7:20 PM,30.2,21.2,69,29.93,8.0,West,20.7,25.3,0.00,Snow,Light Snow,270,2013-03-21 23:20:00
7:35 PM,30.2,19.4,64,29.93,9.0,West,19.6,24.2,0.00,,Overcast,270,2013-03-21 23:35:00
7:53 PM,30.0,19.9,66,29.96,10.0,West,16.1,-,0.00,,Overcast,270,2013-03-21 23:53:00
8:53 PM,30.0,19.9,66,29.96,10.0,West,16.1,19.6,0.00,,Overcast,280,2013-03-22 00:53:00
9:53 PM,28.9,18.0,64,29.97,10.0,West,17.3,23.0,N/A,,Overcast,280,2013-03-22 01:53:00
10:53 PM,28.9,17.1,61,29.98,10.0,West,15.0,-,N/A,,Overcast,270,2013-03-22 02:53:00
11:53 PM,28.0,16.0,61,29.99,10.0,West,13.8,-,N/A,,Overcast,280,2013-03-22 03:53:00